Time,TemperatureF,DewpointF,PressureIn,WindDirection,WindDirectionDegrees,WindSpeedMPH,WindSpeedGustMPH,Humidity,HourlyPrecipIn,Conditions,Clouds,dailyrainin,SolarRadiationWatts/m^2,SoftwareType,DateUTC
2013-07-27 00:02:00,63.3,61.9,29.63,SSE,158,0.0,0.0,95,0.00,OVC,,0.00,0.0,WeatherDisplay:10.37,2013-07-27 05:02:00,
2013-07-27 00:07:00,63.3,61.9,29.63,SSE,158,0.0,0.0,95,0.00,OVC,,0.00,0.0,WeatherDisplay:10.37,2013-07-27 05:07:00,
2013-07-27 00:12:00,63.1,61.7,29.63,SSE,158,0.0,0.0,95,0.00,OVC,,0.00,0.0,WeatherDisplay:10.37,2013-07-27 05:12:00,
2013-07-27 00:17:00,63.1,61.7,29.63,SSE,158,0.0,0.0,95,0.00,OVC,,0.00,0.0,WeatherDisplay:10.37,2013-07-27 05:17:00,
2013-07-27 00:22:00,63.1,61.7,29.63,SSE,158,0.0,0.0,95,0.00,OVC,,0.00,0.0,WeatherDisplay:10.37,2013-07-27 05:22:00,
2013-07-27 00:27:00,63.0,61.5,29.63,SSE,158,0.0,0.0,95,0.00,OVC,,0.00,0.0,WeatherDisplay:10.37,2013-07-27 05:27:00,
2013-07-27 00:32:00,62.8,61.3,29.63,SSE,158,0.0,0.0,95,0.00,OVC,,0.00,0.0,WeatherDisplay:10.37,2013-07-27 05:32:00,
2013-07-27 00:37:00,62.8,61.3,29.63,SSE,158,0.0,0.0,95,0.00,OVC,,0.00,0.0,WeatherDisplay:10.37,2013-07-27 05:37:00,
2013-07-27 00:42:00,62.4,61.0,29.63,SSE,158,0.0,0.0,95,0.00,OVC,,0.00,0.0,WeatherDisplay:10.37,2013-07-27 05:42:00,
2013-07-27 00:47:00,62.4,61.0,29.63,SSE,158,0.0,0.0,95,0.00,OVC,,0.00,0.0,WeatherDisplay:10.37,2013-07-27 05:47:00,
2013-07-27 00:52:00,62.4,61.0,29.63,SSE,158,0.0,0.0,95,0.00,OVC,,0.00,0.0,WeatherDisplay:10.37,2013-07-27 05:52:00,
2013-07-27 00:57:00,62.2,60.8,29.63,SSE,158,0.0,0.0,95,0.00,OVC,,0.00,0.0,WeatherDisplay:10.37,2013-07-27 05:57:00,
2013-07-27 01:02:00,62.4,61.0,29.63,SSE,158,0.0,0.0,95,0.00,OVC,,0.00,0.0,WeatherDisplay:10.37,2013-07-27 06:02:00,
2013-07-27 01:07:00,62.4,61.0,29.63,SSE,158,0.0,0.0,95,0.00,OVC,,0.00,0.0,WeatherDisplay:10.37,2013-07-27 06:07:00,
2013-07-27 01:12:00,62.4,61.0,29.63,SSE,158,0.0,0.0,95,0.00,OVC,,0.00,0.0,WeatherDisplay:10.37,2013-07-27 06:12:00,
2013-07-27 01:17:00,62.4,61.0,29.63,SSE,158,0.0,0.0,95,0.00,OVC,,0.00,0.0,WeatherDisplay:10.37,2013-07-27 06:17:00,
2013-07-27 01:22:00,62.4,61.3,29.63,SSE,158,0.0,0.0,96,0.00,OVC,,0.00,0.0,WeatherDisplay:10.37,2013-07-27 06:22:00,
2013-07-27 01:27:00,62.4,61.3,29.66,SSE,158,0.0,0.0,96,0.00,OVC,,0.00,0.0,WeatherDisplay:10.37,2013-07-27 06:27:00,
2013-07-27 01:32:00,62.4,61.3,29.66,SSE,158,0.0,0.0,96,0.00,OVC,,0.00,0.0,WeatherDisplay:10.37,2013-07-27 06:32:00,
2013-07-27 01:37:00,62.6,61.4,29.66,SSE,158,0.0,0.0,96,0.00,OVC,,0.00,0.0,WeatherDisplay:10.37,2013-07-27 06:37:00,
2013-07-27 01:42:00,62.6,61.4,29.63,SSE,158,0.0,0.0,96,0.00,OVC,,0.00,0.0,WeatherDisplay:10.37,2013-07-27 06:42:00,
2013-07-27 01:47:00,62.8,61.6,29.63,SSE,158,0.0,0.0,96,0.00,OVC,,0.00,0.0,WeatherDisplay:10.37,2013-07-27 06:47:00,
2013-07-27 01:52:00,62.8,61.6,29.63,SSE,158,0.0,0.0,96,0.00,OVC,,0.00,0.0,WeatherDisplay:10.37,2013-07-27 06:52:00,
2013-07-27 01:57:00,62.8,61.6,29.63,SSE,158,0.0,0.0,96,0.00,OVC,,0.00,0.0,WeatherDisplay:10.37,2013-07-27 06:57:00,
2013-07-27 02:02:00,62.8,61.6,29.63,WSW,248,0.0,0.0,96,0.00,OVC,,0.00,0.0,WeatherDisplay:10.37,2013-07-27 07:02:00,
2013-07-27 02:08:00,62.8,61.6,29.66,WSW,248,0.0,0.0,96,0.00,OVC,,0.00,0.0,WeatherDisplay:10.37,2013-07-27 07:08:00,
2013-07-27 02:13:00,62.8,61.6,29.66,WSW,248,0.0,0.0,96,0.00,OVC,,0.00,0.0,WeatherDisplay:10.37,2013-07-27 07:13:00,
2013-07-27 02:18:00,62.8,61.6,29.66,WSW,248,0.0,0.0,96,0.00,OVC,,0.00,0.0,WeatherDisplay:10.37,2013-07-27 07:18:00,
2013-07-27 02:23:00,62.8,61.6,29.63,WSW,248,0.0,0.0,96,0.00,OVC,,0.00,0.0,WeatherDisplay:10.37,2013-07-27 07:23:00,
2013-07-27 02:28:00,62.8,61.6,29.63,WSW,248,0.0,0.0,96,0.00,OVC,,0.00,0.0,WeatherDisplay:10.37,2013-07-27 07:28:00,
2013-07-27 02:33:00,62.8,61.6,29.63,WSW,248,0.0,0.0,96,0.00,OVC,,0.00,0.0,WeatherDisplay:10.37,2013-07-27 07:33:00,
2013-07-27 02:38:00,62.8,61.6,29.63,WSW,248,0.0,0.0,96,0.00,OVC,,0.00,0.0,WeatherDisplay:10.37,2013-07-27 07:38:00,
2013-07-27 02:43:00,62.4,61.3,29.63,WSW,248,0.0,0.0,96,0.00,OVC,,0.00,0.0,WeatherDisplay:10.37,2013-07-27 07:43:00,
2013-07-27 02:48:00,62.4,61.3,29.63,WSW,248,0.0,0.0,96,0.00,OVC,,0.00,0.0,WeatherDisplay:10.37,2013-07-27 07:48:00,
2013-07-27 02:53:00,62.6,61.7,29.63,WSW,248,0.0,0.0,97,0.00,OVC,,0.00,0.0,WeatherDisplay:10.37,2013-07-27 07:53:00,
2013-07-27 02:58:00,62.6,61.7,29.63,WSW,248,0.0,0.0,97,0.00,OVC,,0.00,0.0,WeatherDisplay:10.37,2013-07-27 07:58:00,
2013-07-27 03:03:00,62.6,61.7,29.63,WSW,248,0.0,0.0,97,0.00,OVC,,0.00,0.0,WeatherDisplay:10.37,2013-07-27 08:03:00,
2013-07-27 03:08:00,62.8,61.9,29.63,WSW,248,0.0,0.0,97,0.00,OVC,,0.00,0.0,WeatherDisplay:10.37,2013-07-27 08:08:00,
2013-07-27 03:13:00,62.8,61.9,29.63,WSW,248,0.0,0.0,97,0.00,OVC,,0.00,0.0,WeatherDisplay:10.37,2013-07-27 08:13:00,
2013-07-27 03:18:00,62.8,61.9,29.63,WSW,248,0.0,0.0,97,0.00,OVC,,0.00,0.0,WeatherDisplay:10.37,2013-07-27 08:18:00,
2013-07-27 03:23:00,62.8,61.9,29.63,WSW,248,0.0,0.0,97,0.00,OVC,,0.00,0.0,WeatherDisplay:10.37,2013-07-27 08:23:00,
2013-07-27 03:28:00,63.0,62.1,29.63,WSW,248,0.0,0.0,97,0.00,OVC,,0.00,0.0,WeatherDisplay:10.37,2013-07-27 08:28:00,
2013-07-27 03:33:00,63.1,62.3,29.63,WSW,248,0.0,0.0,97,0.00,OVC,,0.00,0.0,WeatherDisplay:10.37,2013-07-27 08:33:00,
2013-07-27 03:38:00,63.1,62.3,29.66,WSW,248,0.0,0.0,97,0.00,OVC,,0.00,0.0,WeatherDisplay:10.37,2013-07-27 08:38:00,
2013-07-27 03:43:00,63.1,62.3,29.66,WSW,248,0.0,0.0,97,0.00,OVC,,0.00,0.0,WeatherDisplay:10.37,2013-07-27 08:43:00,
2013-07-27 03:48:00,63.3,62.5,29.66,WSW,248,0.0,0.0,97,0.00,OVC,,0.00,0.0,WeatherDisplay:10.37,2013-07-27 08:48:00,
2013-07-27 03:53:00,63.3,62.5,29.63,WNW,292,1.2,1.2,97,0.00,OVC,,0.00,0.0,WeatherDisplay:10.37,2013-07-27 08:53:00,
2013-07-27 03:58:00,63.3,62.5,29.63,WNW,292,2.3,2.3,97,0.00,OVC,,0.00,0.0,WeatherDisplay:10.37,2013-07-27 08:58:00,
2013-07-27 04:03:00,63.3,62.5,29.63,WNW,292,2.3,2.3,97,0.00,OVC,,0.00,0.0,WeatherDisplay:10.37,2013-07-27 09:03:00,
2013-07-27 04:08:00,63.1,62.3,29.63,NW,315,0.0,0.0,97,0.00,OVC,,0.00,0.0,WeatherDisplay:10.37,2013-07-27 09:08:00,
2013-07-27 04:13:00,63.1,62.3,29.63,WNW,292,0.0,0.0,97,0.00,OVC,,0.00,0.0,WeatherDisplay:10.37,2013-07-27 09:13:00,
2013-07-27 04:18:00,63.0,62.1,29.63,WNW,292,2.3,2.4,97,0.00,OVC,,0.00,0.0,WeatherDisplay:10.37,2013-07-27 09:18:00,
2013-07-27 04:23:00,63.0,62.1,29.63,WNW,292,3.5,3.5,97,0.00,OVC,,0.00,0.0,WeatherDisplay:10.37,2013-07-27 09:23:00,
2013-07-27 04:28:00,63.0,62.1,29.63,WNW,292,2.3,2.3,97,0.00,OVC,,0.00,0.0,WeatherDisplay:10.37,2013-07-27 09:28:00,
2013-07-27 04:33:00,63.0,62.4,29.63,NW,315,3.5,3.5,98,0.00,OVC,,0.00,0.0,WeatherDisplay:10.37,2013-07-27 09:33:00,
2013-07-27 04:38:00,63.1,62.6,29.63,WNW,292,2.4,2.4,98,0.00,OVC,,0.00,0.0,WeatherDisplay:10.37,2013-07-27 09:38:00,
2013-07-27 04:43:00,63.1,62.6,29.63,NNW,338,1.6,0.0,98,0.00,OVC,,0.00,0.0,WeatherDisplay:10.37,2013-07-27 09:43:00,
2013-07-27 04:48:00,63.0,62.4,29.63,WNW,292,2.3,0.0,98,0.00,OVC,,0.00,0.0,WeatherDisplay:10.37,2013-07-27 09:48:00,
2013-07-27 04:53:00,62.8,62.2,29.60,NNW,338,2.3,2.3,98,0.00,OVC,,0.00,0.0,WeatherDisplay:10.37,2013-07-27 09:53:00,
2013-07-27 04:58:00,62.6,61.7,29.60,NW,315,2.3,2.3,97,0.00,OVC,,0.00,0.0,WeatherDisplay:10.37,2013-07-27 09:58:00,
2013-07-27 05:03:00,62.4,61.6,29.60,NNW,338,1.2,1.4,97,0.00,OVC,,0.00,0.0,WeatherDisplay:10.37,2013-07-27 10:03:00,
2013-07-27 05:08:00,62.2,61.4,29.63,North,0,2.3,2.3,97,0.00,OVC,,0.00,0.0,WeatherDisplay:10.37,2013-07-27 10:08:00,
2013-07-27 05:13:00,62.1,61.2,29.63,NNW,338,2.3,2.3,97,0.00,OVC,,0.00,0.0,WeatherDisplay:10.37,2013-07-27 10:13:00,
2013-07-27 05:18:00,61.9,61.0,29.63,NNW,338,2.9,2.9,97,0.00,OVC,,0.00,0.0,WeatherDisplay:10.37,2013-07-27 10:18:00,
2013-07-27 05:23:00,61.7,60.5,29.60,ENE,68,2.3,2.3,96,0.00,OVC,,0.00,0.0,WeatherDisplay:10.37,2013-07-27 10:23:00,
2013-07-27 05:28:00,61.5,60.4,29.60,ENE,68,2.3,2.3,96,0.00,OVC,,0.00,0.0,WeatherDisplay:10.37,2013-07-27 10:28:00,
2013-07-27 05:33:00,61.3,60.2,29.60,North,0,1.2,0.0,96,0.00,OVC,,0.00,0.0,WeatherDisplay:10.37,2013-07-27 10:33:00,
2013-07-27 05:38:00,61.2,60.0,29.63,NE,45,0.0,0.0,96,0.00,OVC,,0.00,0.0,WeatherDisplay:10.37,2013-07-27 10:38:00,
2013-07-27 05:43:00,61.0,59.8,29.63,WNW,292,2.3,2.3,96,0.00,OVC,,0.00,0.0,WeatherDisplay:10.37,2013-07-27 10:43:00,
2013-07-27 05:48:00,60.8,59.7,29.63,North,0,2.3,2.3,96,0.00,OVC,,0.00,0.0,WeatherDisplay:10.37,2013-07-27 10:48:00,
2013-07-27 05:53:00,60.8,59.7,29.63,North,0,0.0,0.0,96,0.00,OVC,,0.00,0.0,WeatherDisplay:10.37,2013-07-27 10:53:00,
2013-07-27 05:58:00,60.6,59.5,29.63,NNW,338,1.2,1.2,96,0.00,OVC,,0.00,0.0,WeatherDisplay:10.37,2013-07-27 10:58:00,
2013-07-27 06:03:00,60.4,59.3,29.63,ENE,68,2.3,0.0,96,0.00,OVC,,0.00,0.0,WeatherDisplay:10.37,2013-07-27 11:03:00,
2013-07-27 06:08:00,60.3,59.1,29.63,NNW,338,0.0,0.0,96,0.00,OVC,,0.00,0.0,WeatherDisplay:10.37,2013-07-27 11:08:00,
2013-07-27 06:13:00,60.3,59.1,29.63,NNW,338,1.2,0.0,96,0.00,OVC,,0.00,0.0,WeatherDisplay:10.37,2013-07-27 11:13:00,
2013-07-27 06:18:00,60.1,58.9,29.63,East,90,1.2,0.0,96,0.00,OVC,,0.00,0.0,WeatherDisplay:10.37,2013-07-27 11:18:00,
2013-07-27 06:23:00,60.1,58.9,29.60,East,90,0.0,0.0,96,0.00,OVC,,0.00,0.0,WeatherDisplay:10.37,2013-07-27 11:23:00,
2013-07-27 06:28:00,60.1,58.9,29.60,NNW,338,0.0,0.0,96,0.00,OVC,,0.00,0.0,WeatherDisplay:10.37,2013-07-27 11:28:00,
2013-07-27 06:33:00,59.9,58.8,29.60,NNE,22,0.0,0.0,96,0.00,OVC,,0.00,0.0,WeatherDisplay:10.37,2013-07-27 11:33:00,
2013-07-27 06:38:00,59.9,58.8,29.63,East,90,1.6,0.0,96,0.00,OVC,,0.00,0.0,WeatherDisplay:10.37,2013-07-27 11:38:00,
2013-07-27 06:43:00,59.9,58.8,29.63,SE,135,0.0,0.0,96,0.00,OVC,,0.00,0.0,WeatherDisplay:10.37,2013-07-27 11:43:00,
2013-07-27 06:48:00,60.1,59.2,29.63,NE,45,1.2,0.0,97,0.00,OVC,,0.00,0.0,WeatherDisplay:10.37,2013-07-27 11:48:00,
2013-07-27 06:53:00,60.1,59.2,29.63,NNE,22,0.0,0.0,97,0.00,OVC,,0.00,0.0,WeatherDisplay:10.37,2013-07-27 11:53:00,
2013-07-27 06:58:00,60.1,59.2,29.63,East,90,1.4,1.4,97,0.00,OVC,,0.00,0.0,WeatherDisplay:10.37,2013-07-27 11:58:00,
2013-07-27 07:03:00,60.1,59.2,29.63,ENE,68,2.0,0.0,97,0.00,OVC,,0.00,0.0,WeatherDisplay:10.37,2013-07-27 12:03:00,
2013-07-27 07:08:00,60.3,59.4,29.63,North,0,1.2,1.2,97,0.00,OVC,,0.00,0.0,WeatherDisplay:10.37,2013-07-27 12:08:00,
2013-07-27 07:13:00,60.3,59.1,29.63,NE,45,0.0,0.0,96,0.00,OVC,,0.00,0.0,WeatherDisplay:10.37,2013-07-27 12:13:00,
2013-07-27 07:18:00,60.4,59.6,29.63,SW,225,0.0,0.0,97,0.00,OVC,,0.00,0.0,WeatherDisplay:10.37,2013-07-27 12:18:00,
2013-07-27 07:23:00,60.6,59.8,29.63,NE,45,2.3,0.0,97,0.00,OVC,,0.00,0.0,WeatherDisplay:10.37,2013-07-27 12:23:00,
2013-07-27 07:28:00,60.8,59.9,29.63,North,0,2.3,2.3,97,0.00,OVC,,0.00,0.0,WeatherDisplay:10.37,2013-07-27 12:28:00,
2013-07-27 07:33:00,61.2,60.3,29.63,NNE,22,3.1,3.1,97,0.00,OVC,,0.00,0.0,WeatherDisplay:10.37,2013-07-27 12:33:00,
2013-07-27 07:38:00,61.3,60.5,29.66,North,0,3.6,3.6,97,0.00,OVC,,0.00,0.0,WeatherDisplay:10.37,2013-07-27 12:38:00,
2013-07-27 07:43:00,61.5,60.7,29.66,SSE,158,4.6,4.6,97,0.00,OVC,,0.00,0.0,WeatherDisplay:10.37,2013-07-27 12:43:00,
2013-07-27 07:48:00,61.9,61.0,29.66,ENE,68,5.8,5.8,97,0.00,OVC,,0.00,0.0,WeatherDisplay:10.37,2013-07-27 12:48:00,
2013-07-27 07:53:00,62.1,61.2,29.66,North,0,2.3,2.3,97,0.00,OVC,,0.00,0.0,WeatherDisplay:10.37,2013-07-27 12:53:00,
2013-07-27 07:59:00,62.1,61.2,29.66,NE,45,5.8,5.8,97,0.00,OVC,,0.00,0.0,WeatherDisplay:10.37,2013-07-27 12:59:00,
2013-07-27 08:04:00,62.2,61.1,29.66,NE,45,4.7,4.7,96,0.00,OVC,,0.00,0.0,WeatherDisplay:10.37,2013-07-27 13:04:00,
2013-07-27 08:09:00,62.6,61.7,29.66,ENE,68,3.1,3.1,97,0.00,OVC,,0.00,0.0,WeatherDisplay:10.37,2013-07-27 13:09:00,
2013-07-27 08:14:00,62.8,61.9,29.66,ENE,68,2.3,2.3,97,0.00,OVC,,0.00,0.0,WeatherDisplay:10.37,2013-07-27 13:14:00,
2013-07-27 08:19:00,63.0,61.8,29.66,ENE,68,4.6,4.6,96,0.00,OVC,,0.00,0.0,WeatherDisplay:10.37,2013-07-27 13:19:00,
2013-07-27 08:24:00,63.1,62.0,29.69,NNE,22,2.3,2.3,96,0.00,OVC,,0.00,0.0,WeatherDisplay:10.37,2013-07-27 13:24:00,
2013-07-27 08:29:00,63.5,62.3,29.69,SSE,158,3.5,3.5,96,0.00,OVC,,0.00,0.0,WeatherDisplay:10.37,2013-07-27 13:29:00,
2013-07-27 08:34:00,63.7,62.5,29.69,NE,45,4.6,4.6,96,0.00,OVC,,0.00,0.0,WeatherDisplay:10.37,2013-07-27 13:34:00,
2013-07-27 08:39:00,64.0,62.6,29.69,ENE,68,5.6,5.6,95,0.00,OVC,,0.00,0.0,WeatherDisplay:10.37,2013-07-27 13:39:00,
2013-07-27 08:44:00,64.4,62.9,29.69,ENE,68,5.8,5.8,95,0.00,OVC,,0.00,0.0,WeatherDisplay:10.37,2013-07-27 13:44:00,
2013-07-27 08:49:00,64.8,63.0,29.69,ESE,112,3.5,3.5,94,0.00,OVC,,0.00,0.0,WeatherDisplay:10.37,2013-07-27 13:49:00,
2013-07-27 08:54:00,64.9,62.9,29.69,East,90,5.8,5.8,93,0.00,OVC,,0.00,0.0,WeatherDisplay:10.37,2013-07-27 13:54:00,
2013-07-27 08:59:00,65.3,63.2,29.69,ESE,112,2.3,2.3,93,0.00,OVC,,0.00,0.0,WeatherDisplay:10.37,2013-07-27 13:59:00,
2013-07-27 09:04:00,65.7,63.6,29.69,ENE,68,4.7,4.7,93,0.00,OVC,,0.00,100.0,WeatherDisplay:10.37,2013-07-27 14:04:00,
2013-07-27 09:09:00,66.4,64.0,29.69,ENE,68,3.5,3.5,92,0.00,OVC,,0.00,100.0,WeatherDisplay:10.37,2013-07-27 14:09:00,
2013-07-27 09:14:00,66.4,66.4,29.69,North,0,2.3,2.3,100,0.00,OVC,,0.00,100.0,WeatherDisplay:10.37,2013-07-27 14:14:00,
2013-07-27 09:19:00,66.6,63.5,29.69,NNE,22,1.6,1.6,90,0.00,OVC,,0.00,100.0,WeatherDisplay:10.37,2013-07-27 14:19:00,
2013-07-27 09:24:00,66.6,63.5,29.69,NNE,22,1.6,1.6,90,0.00,OVC,,0.00,100.0,WeatherDisplay:10.37,2013-07-27 14:24:00,
2013-07-27 09:29:00,66.6,63.5,29.69,NNE,22,1.6,1.6,90,0.00,OVC,,0.00,100.0,WeatherDisplay:10.37,2013-07-27 14:29:00,
2013-07-27 09:34:00,67.8,64.1,29.69,ENE,68,2.6,2.6,88,0.00,OVC,,0.00,200.0,WeatherDisplay:10.37,2013-07-27 14:34:00,
2013-07-27 09:39:00,67.8,62.5,29.66,North,0,6.9,6.9,83,0.00,OVC,,0.00,200.0,WeatherDisplay:10.37,2013-07-27 14:39:00,
2013-07-27 09:44:00,68.0,63.0,29.66,North,0,3.5,3.5,84,0.00,OVC,,0.00,200.0,WeatherDisplay:10.37,2013-07-27 14:44:00,
2013-07-27 09:49:00,68.5,62.8,29.66,NE,45,3.5,3.5,82,0.00,OVC,,0.00,200.0,WeatherDisplay:10.37,2013-07-27 14:49:00,
2013-07-27 09:54:00,68.4,62.3,29.72,NW,315,2.6,2.6,81,0.00,OVC,,0.00,200.0,WeatherDisplay:10.37,2013-07-27 14:54:00,
2013-07-27 09:59:00,68.5,61.8,29.72,NNW,338,2.3,2.3,79,0.00,OVC,,0.00,0.0,WeatherDisplay:10.37,2013-07-27 14:59:00,
2013-07-27 10:04:00,68.7,61.2,29.72,NNE,22,3.5,3.5,77,0.00,OVC,,0.00,300.0,WeatherDisplay:10.37,2013-07-27 15:04:00,
2013-07-27 10:09:00,69.1,61.2,29.69,East,90,3.5,3.5,76,0.00,OVC,,0.00,300.0,WeatherDisplay:10.37,2013-07-27 15:09:00,
2013-07-27 10:14:00,69.4,61.2,29.69,East,90,3.5,3.5,75,0.00,OVC,,0.00,300.0,WeatherDisplay:10.37,2013-07-27 15:14:00,
2013-07-27 10:19:00,70.2,62.6,29.69,WNW,292,4.6,4.6,77,0.00,OVC,,0.00,400.0,WeatherDisplay:10.37,2013-07-27 15:19:00,
2013-07-27 10:24:00,70.5,61.8,29.69,SE,135,4.6,4.6,74,0.00,OVC,,0.00,400.0,WeatherDisplay:10.37,2013-07-27 15:24:00,
2013-07-27 10:29:00,70.9,61.4,29.69,NNE,22,2.3,2.3,72,0.00,OVC,,0.00,400.0,WeatherDisplay:10.37,2013-07-27 15:29:00,
2013-07-27 10:34:00,71.2,61.7,29.69,ENE,68,2.3,2.4,72,0.00,OVC,,0.00,400.0,WeatherDisplay:10.37,2013-07-27 15:34:00,
2013-07-27 10:39:00,71.6,61.7,29.69,NNW,338,2.3,2.3,71,0.00,OVC,,0.00,500.0,WeatherDisplay:10.37,2013-07-27 15:39:00,
2013-07-27 10:44:00,72.3,62.4,29.69,NNE,22,5.8,5.8,71,0.00,OVC,,0.00,500.0,WeatherDisplay:10.37,2013-07-27 15:44:00,
2013-07-27 10:49:00,71.4,59.9,29.69,WNW,292,3.5,3.6,67,0.00,OVC,,0.00,500.0,WeatherDisplay:10.37,2013-07-27 15:49:00,
2013-07-27 10:54:00,71.8,60.6,29.69,ESE,112,5.8,5.8,68,0.00,OVC,,0.00,500.0,WeatherDisplay:10.37,2013-07-27 15:54:00,
2013-07-27 10:59:00,71.2,58.9,29.69,NNW,338,4.6,4.6,65,0.00,OVC,,0.00,500.0,WeatherDisplay:10.37,2013-07-27 15:59:00,
2013-07-27 11:04:00,72.0,60.4,29.69,WNW,292,3.5,3.5,67,0.00,OVC,,0.00,600.0,WeatherDisplay:10.37,2013-07-27 16:04:00,
2013-07-27 11:09:00,71.6,59.6,29.69,NNW,338,3.5,3.5,66,0.00,OVC,,0.00,300.0,WeatherDisplay:10.37,2013-07-27 16:09:00,
2013-07-27 11:14:00,72.1,59.7,29.69,North,0,5.6,5.6,65,0.00,OVC,,0.00,600.0,WeatherDisplay:10.37,2013-07-27 16:14:00,
2013-07-27 11:19:00,73.0,61.4,29.69,NNW,338,6.0,6.0,67,0.00,OVC,,0.00,400.0,WeatherDisplay:10.37,2013-07-27 16:19:00,
2013-07-27 11:24:00,72.9,59.5,29.69,NNW,338,2.4,2.4,63,0.00,OVC,,0.00,600.0,WeatherDisplay:10.37,2013-07-27 16:24:00,
2013-07-27 11:29:00,73.4,60.9,29.69,NNE,22,3.6,3.6,65,0.00,OVC,,0.00,600.0,WeatherDisplay:10.37,2013-07-27 16:29:00,
2013-07-27 11:34:00,74.3,61.8,29.69,ENE,68,2.3,2.3,65,0.00,OVC,,0.00,700.0,WeatherDisplay:10.37,2013-07-27 16:34:00,
2013-07-27 11:39:00,75.4,62.4,29.69,ENE,68,7.4,7.4,64,0.00,OVC,,0.00,600.0,WeatherDisplay:10.37,2013-07-27 16:39:00,
2013-07-27 11:44:00,75.7,62.7,29.69,North,0,3.5,3.5,64,0.00,OVC,,0.00,700.0,WeatherDisplay:10.37,2013-07-27 16:44:00,
2013-07-27 11:49:00,75.0,61.6,29.69,NNE,22,8.1,8.1,63,0.00,OVC,,0.00,400.0,WeatherDisplay:10.37,2013-07-27 16:49:00,
2013-07-27 11:54:00,74.5,61.1,29.69,NE,45,3.8,3.8,63,0.00,OVC,,0.00,400.0,WeatherDisplay:10.37,2013-07-27 16:54:00,
2013-07-27 11:59:00,74.8,61.4,29.69,NNW,338,2.3,2.3,63,0.00,OVC,,0.00,600.0,WeatherDisplay:10.37,2013-07-27 16:59:00,
2013-07-27 12:04:00,75.9,62.4,29.69,NE,45,2.3,2.3,63,0.00,OVC,,0.00,500.0,WeatherDisplay:10.37,2013-07-27 17:04:00,
2013-07-27 12:09:00,74.3,58.6,29.69,NNW,338,5.8,5.8,58,0.00,OVC,,0.00,400.0,WeatherDisplay:10.37,2013-07-27 17:09:00,
2013-07-27 12:14:00,74.5,60.6,29.69,NNW,338,5.8,5.8,62,0.00,OVC,,0.00,600.0,WeatherDisplay:10.37,2013-07-27 17:14:00,
2013-07-27 12:19:00,74.7,59.4,29.69,North,0,3.5,3.5,59,0.00,BKN,OVC,0.00,800.0,WeatherDisplay:10.37,2013-07-27 17:19:00,
2013-07-27 12:24:00,74.5,59.2,29.69,NE,45,5.8,5.8,59,0.00,CLR,OVC,0.00,900.0,WeatherDisplay:10.37,2013-07-27 17:24:00,
2013-07-27 12:29:00,75.9,61.0,29.69,WNW,292,3.6,3.6,60,0.00,CLR,OVC,0.00,900.0,WeatherDisplay:10.37,2013-07-27 17:29:00,
2013-07-27 12:34:00,75.7,59.4,29.69,WSW,248,4.6,4.6,57,0.00,CLR,OVC,0.00,900.0,WeatherDisplay:10.37,2013-07-27 17:34:00,
2013-07-27 12:39:00,75.9,60.1,29.69,WNW,292,3.5,3.5,58,0.00,CLR,OVC,0.00,900.0,WeatherDisplay:10.37,2013-07-27 17:39:00,
2013-07-27 12:44:00,75.4,57.6,29.69,NNW,338,6.9,6.9,54,0.00,CLR,OVC,0.00,800.0,WeatherDisplay:10.37,2013-07-27 17:44:00,
2013-07-27 12:49:00,75.9,59.6,29.69,NNE,22,6.9,6.9,57,0.00,CLR,OVC,0.00,800.0,WeatherDisplay:10.37,2013-07-27 17:49:00,
2013-07-27 12:54:00,75.9,59.6,29.69,ENE,68,7.4,7.4,57,0.00,CLR,OVC,0.00,800.0,WeatherDisplay:10.37,2013-07-27 17:54:00,
2013-07-27 12:59:00,75.9,59.6,29.69,ENE,68,7.4,7.4,57,0.00,CLR,OVC,0.00,800.0,WeatherDisplay:10.37,2013-07-27 17:59:00,
2013-07-27 13:05:00,75.9,59.6,29.69,ENE,68,7.4,7.4,57,0.00,CLR,OVC,0.00,800.0,WeatherDisplay:10.37,2013-07-27 18:05:00,
2013-07-27 13:10:00,75.9,59.6,29.69,ENE,68,7.4,7.4,57,0.00,CLR,OVC,0.00,800.0,WeatherDisplay:10.37,2013-07-27 18:10:00,
2013-07-27 13:15:00,75.9,59.6,29.69,ENE,68,7.4,7.4,57,0.00,CLR,OVC,0.00,800.0,WeatherDisplay:10.37,2013-07-27 18:15:00,
2013-07-27 13:20:00,75.9,59.6,29.69,ENE,68,7.4,7.4,57,0.00,CLR,OVC,0.00,800.0,WeatherDisplay:10.37,2013-07-27 18:20:00,
2013-07-27 13:25:00,75.9,59.6,29.69,ENE,68,7.4,7.4,57,0.00,CLR,OVC,0.00,800.0,WeatherDisplay:10.37,2013-07-27 18:25:00,
2013-07-27 13:30:00,75.9,59.6,29.69,ENE,68,7.4,7.4,57,0.00,CLR,OVC,0.00,800.0,WeatherDisplay:10.37,2013-07-27 18:30:00,
2013-07-27 13:35:00,75.9,59.6,29.69,ENE,68,7.4,7.4,57,0.00,CLR,OVC,0.00,800.0,WeatherDisplay:10.37,2013-07-27 18:35:00,
2013-07-27 13:40:00,75.9,59.6,29.69,ENE,68,7.4,7.4,57,0.00,CLR,OVC,0.00,800.0,WeatherDisplay:10.37,2013-07-27 18:40:00,
2013-07-27 13:45:00,75.9,59.6,29.69,ENE,68,5.0,7.0,57,0.00,CLR,OVC,0.00,800.0,WeatherDisplay:10.37,2013-07-27 18:45:00,
2013-07-27 13:50:00,75.9,59.6,29.69,ENE,68,7.4,7.4,57,0.00,CLR,OVC,0.00,800.0,WeatherDisplay:10.37,2013-07-27 18:50:00,
2013-07-27 13:55:00,75.9,59.6,29.69,ENE,68,5.0,7.0,57,0.00,CLR,OVC,0.00,800.0,WeatherDisplay:10.37,2013-07-27 18:55:00,
2013-07-27 14:00:00,75.9,59.6,29.69,ENE,68,5.0,7.0,57,0.00,CLR,OVC,0.00,800.0,WeatherDisplay:10.37,2013-07-27 19:00:00,
2013-07-27 14:05:00,75.9,59.6,29.69,ENE,68,7.4,7.4,57,0.00,CLR,OVC,0.00,800.0,WeatherDisplay:10.37,2013-07-27 19:05:00,
2013-07-27 14:10:00,75.9,59.6,29.69,ENE,68,5.0,7.0,57,0.00,CLR,OVC,0.00,800.0,WeatherDisplay:10.37,2013-07-27 19:10:00,
2013-07-27 14:15:00,75.9,59.6,29.69,ENE,68,7.4,7.4,57,0.00,CLR,OVC,0.00,800.0,WeatherDisplay:10.37,2013-07-27 19:15:00,
2013-07-27 14:20:00,75.9,59.6,29.69,ENE,68,7.4,7.4,57,0.00,CLR,OVC,0.00,800.0,WeatherDisplay:10.37,2013-07-27 19:20:00,
2013-07-27 14:25:00,75.9,59.6,29.69,ENE,68,7.4,7.4,57,0.00,CLR,OVC,0.00,800.0,WeatherDisplay:10.37,2013-07-27 19:25:00,
2013-07-27 14:30:00,75.9,59.6,29.69,ENE,68,7.4,7.4,57,0.00,CLR,OVC,0.00,800.0,WeatherDisplay:10.37,2013-07-27 19:30:00,
2013-07-27 14:35:00,75.9,59.6,29.69,NE,41,2.0,7.0,57,0.00,CLR,OVC,0.00,800.0,WeatherDisplay:10.37,2013-07-27 19:35:00,
2013-07-27 14:40:00,82.2,61.2,29.60,NW,315,5.4,5.4,49,0.00,CLR,OVC,0.00,700.0,WeatherDisplay:10.37,2013-07-27 19:40:00,
2013-07-27 14:45:00,79.3,57.9,29.60,NW,315,4.9,4.9,48,0.00,CLR,OVC,0.00,700.0,WeatherDisplay:10.37,2013-07-27 19:45:00,
2013-07-27 14:50:00,81.0,60.0,29.60,NW,315,4.0,4.0,49,0.00,CLR,OVC,0.00,700.0,WeatherDisplay:10.37,2013-07-27 19:50:00,
2013-07-27 14:55:00,81.9,60.2,29.63,WNW,292,2.4,2.4,48,0.00,CLR,OVC,0.00,700.0,WeatherDisplay:10.37,2013-07-27 19:55:00,
2013-07-27 15:00:00,80.8,59.3,29.63,WNW,292,5.4,5.4,48,0.00,CLR,OVC,0.00,700.0,WeatherDisplay:10.37,2013-07-27 20:00:00,
2013-07-27 15:05:00,79.5,58.1,29.63,NW,315,5.6,5.6,48,0.00,CLR,OVC,0.00,700.0,WeatherDisplay:10.37,2013-07-27 20:05:00,
2013-07-27 15:10:00,80.5,59.0,29.60,NNW,337,2.0,6.0,48,0.00,CLR,OVC,0.00,700.0,WeatherDisplay:10.37,2013-07-27 20:10:00,
2013-07-27 15:15:00,81.5,59.4,29.60,NNE,32,3.0,5.0,47,0.00,CLR,OVC,0.00,600.0,WeatherDisplay:10.37,2013-07-27 20:15:00,
2013-07-27 15:20:00,80.1,58.6,29.60,WNW,295,3.0,8.0,48,0.00,CLR,OVC,0.00,600.0,WeatherDisplay:10.37,2013-07-27 20:20:00,
2013-07-27 15:25:00,81.9,57.2,29.63,NNW,330,2.0,5.0,43,0.00,CLR,OVC,0.00,600.0,WeatherDisplay:10.37,2013-07-27 20:25:00,
2013-07-27 15:30:00,82.4,58.9,29.63,NNW,338,3.6,3.6,45,0.00,CLR,OVC,0.00,600.0,WeatherDisplay:10.37,2013-07-27 20:30:00,
2013-07-27 15:35:00,82.9,59.4,29.63,NNW,338,7.6,7.6,45,0.00,CLR,OVC,0.00,500.0,WeatherDisplay:10.37,2013-07-27 20:35:00,
2013-07-27 15:40:00,82.4,57.7,29.63,NNW,338,4.6,4.6,43,0.00,CLR,OVC,0.00,500.0,WeatherDisplay:10.37,2013-07-27 20:40:00,
2013-07-27 15:45:00,82.3,56.9,29.63,NW,314,5.0,7.0,42,0.00,FEW,OVC,0.00,500.0,WeatherDisplay:10.37,2013-07-27 20:45:00,
2013-07-27 15:50:00,81.1,54.5,29.63,West,270,4.6,4.6,40,0.00,FEW,OVC,0.00,500.0,WeatherDisplay:10.37,2013-07-27 20:50:00,
2013-07-27 15:55:00,82.2,56.8,29.63,NNW,338,3.5,3.5,42,0.00,FEW,OVC,0.00,500.0,WeatherDisplay:10.37,2013-07-27 20:55:00,
2013-07-27 16:00:00,82.4,55.7,29.63,North,355,3.0,6.0,40,0.00,SCT,OVC,0.00,400.0,WeatherDisplay:10.37,2013-07-27 21:00:00,
2013-07-27 16:05:00,83.4,57.9,29.63,North,352,2.0,6.0,42,0.00,SCT,OVC,0.00,400.0,WeatherDisplay:10.37,2013-07-27 21:05:00,
2013-07-27 16:10:00,81.7,55.0,29.63,WNW,292,6.9,6.9,40,0.00,SCT,OVC,0.00,400.0,WeatherDisplay:10.37,2013-07-27 21:10:00,
2013-07-27 16:15:00,82.6,57.2,29.63,NW,324,3.0,6.0,42,0.00,BKN,OVC,0.00,400.0,WeatherDisplay:10.37,2013-07-27 21:15:00,
2013-07-27 16:20:00,82.9,57.5,29.63,SSE,158,3.5,3.5,42,0.00,SCT,OVC,0.00,400.0,WeatherDisplay:10.37,2013-07-27 21:20:00,
2013-07-27 16:25:00,83.7,56.8,29.63,WNW,292,5.8,5.8,40,0.00,BKN,OVC,0.00,300.0,WeatherDisplay:10.37,2013-07-27 21:25:00,
2013-07-27 16:30:00,82.0,54.6,29.63,WNW,292,4.6,4.6,39,0.00,BKN,OVC,0.00,300.0,WeatherDisplay:10.37,2013-07-27 21:30:00,
2013-07-27 16:35:00,81.1,54.5,29.63,SE,135,3.5,3.5,40,0.00,BKN,OVC,0.00,300.0,WeatherDisplay:10.37,2013-07-27 21:35:00,
2013-07-27 16:40:00,82.6,55.8,29.63,NNE,22,5.8,5.8,40,0.00,BKN,OVC,0.00,300.0,WeatherDisplay:10.37,2013-07-27 21:40:00,
2013-07-27 16:45:00,83.3,56.5,29.63,WNW,292,4.0,4.0,40,0.00,BKN,OVC,0.00,300.0,WeatherDisplay:10.37,2013-07-27 21:45:00,
2013-07-27 16:50:00,83.8,58.3,29.63,NNW,338,2.9,2.9,42,0.00,BKN,OVC,0.00,300.0,WeatherDisplay:10.37,2013-07-27 21:50:00,
2013-07-27 16:55:00,81.1,53.8,29.63,WNW,292,4.6,4.6,39,0.00,BKN,OVC,0.00,200.0,WeatherDisplay:10.37,2013-07-27 21:55:00,
2013-07-27 17:00:00,81.1,54.5,29.63,NNW,338,4.6,4.6,40,0.00,BKN,OVC,0.00,200.0,WeatherDisplay:10.37,2013-07-27 22:00:00,
2013-07-27 17:05:00,81.5,54.8,29.63,WNW,292,4.9,4.9,40,0.00,BKN,OVC,0.00,200.0,WeatherDisplay:10.37,2013-07-27 22:05:00,
2013-07-27 17:10:00,82.6,57.2,29.63,WNW,292,4.6,4.6,42,0.00,BKN,OVC,0.00,200.0,WeatherDisplay:10.37,2013-07-27 22:10:00,
2013-07-27 17:15:00,82.4,55.7,29.63,NNE,22,2.3,2.6,40,0.00,BKN,OVC,0.00,200.0,WeatherDisplay:10.37,2013-07-27 22:15:00,
2013-07-27 17:20:00,83.7,56.8,29.63,East,90,1.6,1.6,40,0.00,BKN,OVC,0.00,200.0,WeatherDisplay:10.37,2013-07-27 22:20:00,
2013-07-27 17:25:00,83.8,56.9,29.63,NW,315,3.5,3.5,40,0.00,BKN,OVC,0.00,200.0,WeatherDisplay:10.37,2013-07-27 22:25:00,
2013-07-27 17:30:00,83.3,56.5,29.63,NNW,338,4.6,4.6,40,0.00,BKN,OVC,0.00,100.0,WeatherDisplay:10.37,2013-07-27 22:30:00,
2013-07-27 17:35:00,82.4,55.7,29.63,WNW,292,2.6,2.6,40,0.00,BKN,OVC,0.00,100.0,WeatherDisplay:10.37,2013-07-27 22:35:00,
2013-07-27 17:40:00,81.5,54.8,29.63,WNW,292,2.3,2.3,40,0.00,BKN,OVC,0.00,100.0,WeatherDisplay:10.37,2013-07-27 22:40:00,
2013-07-27 17:45:00,80.4,53.9,29.63,NNW,338,2.3,2.3,40,0.00,BKN,OVC,0.00,100.0,WeatherDisplay:10.37,2013-07-27 22:45:00,
2013-07-27 17:50:00,80.4,55.2,29.63,WNW,292,5.8,5.8,42,0.00,BKN,OVC,0.00,100.0,WeatherDisplay:10.37,2013-07-27 22:50:00,
2013-07-27 17:55:00,80.4,55.2,29.63,NW,315,5.8,5.8,42,0.00,BKN,OVC,0.00,100.0,WeatherDisplay:10.37,2013-07-27 22:55:00,
2013-07-27 18:00:00,80.6,55.4,29.63,NE,45,3.5,3.5,42,0.00,BKN,OVC,0.00,0.0,WeatherDisplay:10.37,2013-07-27 23:00:00,
2013-07-27 18:05:00,79.5,54.4,29.63,East,90,3.5,3.5,42,0.00,OVC,,0.00,0.0,WeatherDisplay:10.37,2013-07-27 23:05:00,
2013-07-27 18:10:00,79.2,54.1,29.60,NNW,338,3.5,3.5,42,0.00,OVC,,0.00,0.0,WeatherDisplay:10.37,2013-07-27 23:10:00,
2013-07-27 18:15:00,78.8,54.4,29.60,NW,315,1.6,1.6,43,0.00,OVC,,0.00,0.0,WeatherDisplay:10.37,2013-07-27 23:15:00,
2013-07-27 18:20:00,79.2,54.1,29.60,NNE,22,2.0,2.0,42,0.00,OVC,,0.00,0.0,WeatherDisplay:10.37,2013-07-27 23:20:00,
2013-07-27 18:25:00,79.3,54.9,29.60,ENE,68,2.3,2.3,43,0.00,OVC,,0.00,100.0,WeatherDisplay:10.37,2013-07-27 23:25:00,
2013-07-27 18:30:00,79.3,54.9,29.60,WNW,292,3.5,3.5,43,0.00,OVC,,0.00,0.0,WeatherDisplay:10.37,2013-07-27 23:30:00,
2013-07-27 18:35:00,78.6,54.2,29.60,NW,315,2.3,2.3,43,0.00,OVC,,0.00,0.0,WeatherDisplay:10.37,2013-07-27 23:35:00,
2013-07-27 18:40:00,79.3,54.9,29.60,NNW,338,3.5,3.5,43,0.00,OVC,,0.00,0.0,WeatherDisplay:10.37,2013-07-27 23:40:00,
2013-07-27 18:45:00,79.5,56.3,29.60,WNW,292,3.5,3.5,45,0.00,OVC,,0.00,0.0,WeatherDisplay:10.37,2013-07-27 23:45:00,
2013-07-27 18:50:00,79.2,54.7,29.60,NNW,338,3.5,3.5,43,0.00,OVC,,0.00,0.0,WeatherDisplay:10.37,2013-07-27 23:50:00,
2013-07-27 18:55:00,78.4,54.1,29.63,ENE,68,4.6,4.6,43,0.00,OVC,,0.00,0.0,WeatherDisplay:10.37,2013-07-27 23:55:00,
2013-07-27 19:00:00,76.8,53.9,29.63,East,90,2.3,2.3,45,0.00,OVC,,0.00,0.0,WeatherDisplay:10.37,2013-07-28 00:00:00,
2013-07-27 19:05:00,76.5,53.5,29.63,East,90,0.0,0.0,45,0.00,OVC,,0.00,0.0,WeatherDisplay:10.37,2013-07-28 00:05:00,
2013-07-27 19:10:00,75.7,54.7,29.63,North,0,1.2,1.2,48,0.00,OVC,,0.00,0.0,WeatherDisplay:10.37,2013-07-28 00:10:00,
2013-07-27 19:15:00,75.9,55.4,29.63,North,0,1.2,0.0,49,0.00,OVC,,0.00,0.0,WeatherDisplay:10.37,2013-07-28 00:15:00,
2013-07-27 19:20:00,75.4,54.9,29.63,WNW,292,1.6,0.0,49,0.00,OVC,,0.00,0.0,WeatherDisplay:10.37,2013-07-28 00:20:00,
2013-07-27 19:25:00,75.0,54.6,29.63,WNW,292,0.0,0.0,49,0.00,OVC,,0.00,0.0,WeatherDisplay:10.37,2013-07-28 00:25:00,
2013-07-27 19:30:00,75.4,55.4,29.63,WNW,292,0.0,0.0,50,0.00,OVC,,0.00,0.0,WeatherDisplay:10.37,2013-07-28 00:30:00,
2013-07-27 19:35:00,75.4,55.4,29.63,WNW,292,1.2,0.0,50,0.00,OVC,,0.00,0.0,WeatherDisplay:10.37,2013-07-28 00:35:00,
2013-07-27 19:41:00,75.0,55.1,29.63,WNW,292,0.0,0.0,50,0.00,OVC,,0.00,0.0,WeatherDisplay:10.37,2013-07-28 00:41:00,
2013-07-27 19:46:00,74.1,54.3,29.63,NNE,22,0.9,0.0,50,0.00,OVC,,0.00,0.0,WeatherDisplay:10.37,2013-07-28 00:46:00,
2013-07-27 19:51:00,74.1,55.4,29.63,NNW,338,0.0,0.0,52,0.00,OVC,,0.00,0.0,WeatherDisplay:10.37,2013-07-28 00:51:00,
2013-07-27 19:56:00,73.6,54.9,29.63,NNW,338,0.0,0.0,52,0.00,OVC,,0.00,0.0,WeatherDisplay:10.37,2013-07-28 00:56:00,
2013-07-27 20:01:00,73.4,54.7,29.63,NNW,338,1.2,1.2,52,0.00,OVC,,0.00,0.0,WeatherDisplay:10.37,2013-07-28 01:01:00,
2013-07-27 20:06:00,72.9,54.7,29.63,NNW,338,0.0,0.0,53,0.00,OVC,,0.00,0.0,WeatherDisplay:10.37,2013-07-28 01:06:00,
2013-07-27 20:11:00,71.6,54.6,29.60,SSE,158,2.3,2.3,55,0.00,OVC,,0.00,0.0,WeatherDisplay:10.37,2013-07-28 01:11:00,
2013-07-27 20:16:00,70.2,54.7,29.60,SSE,158,1.2,0.0,58,0.00,OVC,,0.00,0.0,WeatherDisplay:10.37,2013-07-28 01:16:00,
2013-07-27 20:21:00,69.8,54.4,29.60,SSE,158,0.0,0.0,58,0.00,OVC,,0.00,0.0,WeatherDisplay:10.37,2013-07-28 01:21:00,
2013-07-27 20:26:00,69.3,54.3,29.60,SSE,158,0.0,0.0,59,0.00,OVC,,0.00,0.0,WeatherDisplay:10.37,2013-07-28 01:26:00,
2013-07-27 20:31:00,68.7,55.2,29.60,SSE,158,0.0,0.0,62,0.00,OVC,,0.00,0.0,WeatherDisplay:10.37,2013-07-28 01:31:00,
2013-07-27 20:36:00,68.5,55.9,29.60,SSE,158,0.0,0.0,64,0.00,OVC,,0.00,0.0,WeatherDisplay:10.37,2013-07-28 01:36:00,
2013-07-27 20:41:00,68.0,55.4,29.60,SSE,158,0.0,0.0,64,0.00,OVC,,0.00,0.0,WeatherDisplay:10.37,2013-07-28 01:41:00,
2013-07-27 20:46:00,67.8,55.6,29.60,SSE,158,0.0,0.0,65,0.00,OVC,,0.00,0.0,WeatherDisplay:10.37,2013-07-28 01:46:00,
2013-07-27 20:51:00,67.3,55.5,29.60,SSE,158,0.0,0.0,66,0.00,OVC,,0.00,0.0,WeatherDisplay:10.37,2013-07-28 01:51:00,
2013-07-27 20:56:00,67.1,55.8,29.60,SE,135,0.0,0.0,67,0.00,OVC,,0.00,0.0,WeatherDisplay:10.37,2013-07-28 01:56:00,
2013-07-27 21:02:00,66.6,55.7,29.60,SE,135,0.0,0.0,68,0.00,OVC,,0.00,0.0,WeatherDisplay:10.37,2013-07-28 02:02:00,
2013-07-27 21:07:00,66.2,55.7,29.60,SE,135,0.0,0.0,69,0.00,OVC,,0.00,0.0,WeatherDisplay:10.37,2013-07-28 02:07:00,
2013-07-27 21:12:00,65.8,55.4,29.60,SE,135,0.0,0.0,69,0.00,OVC,,0.00,0.0,WeatherDisplay:10.37,2013-07-28 02:12:00,
2013-07-27 21:17:00,65.5,55.4,29.60,SE,135,0.0,0.0,70,0.00,OVC,,0.00,0.0,WeatherDisplay:10.37,2013-07-28 02:17:00,
2013-07-27 21:22:00,65.3,55.7,29.60,SE,135,0.0,0.0,71,0.00,OVC,,0.00,0.0,WeatherDisplay:10.37,2013-07-28 02:22:00,
2013-07-27 21:27:00,65.1,55.5,29.60,SE,135,0.0,0.0,71,0.00,OVC,,0.00,0.0,WeatherDisplay:10.37,2013-07-28 02:27:00,
2013-07-27 21:32:00,64.8,55.5,29.60,SE,135,0.0,0.0,72,0.00,OVC,,0.00,0.0,WeatherDisplay:10.37,2013-07-28 02:32:00,
2013-07-27 21:37:00,64.6,55.7,29.60,SE,135,0.0,0.0,73,0.00,OVC,,0.00,0.0,WeatherDisplay:10.37,2013-07-28 02:37:00,
2013-07-27 21:42:00,64.2,56.5,29.60,SE,135,2.9,2.9,76,0.00,OVC,,0.00,0.0,WeatherDisplay:10.37,2013-07-28 02:42:00,
2013-07-27 21:47:00,63.9,56.1,29.60,SSE,158,2.3,2.3,76,0.00,OVC,,0.00,0.0,WeatherDisplay:10.37,2013-07-28 02:47:00,
2013-07-27 21:52:00,63.9,56.1,29.60,SSE,158,0.0,0.0,76,0.00,OVC,,0.00,0.0,WeatherDisplay:10.37,2013-07-28 02:52:00,
2013-07-27 21:57:00,63.9,56.5,29.60,SSE,158,0.0,0.0,77,0.00,OVC,,0.00,0.0,WeatherDisplay:10.37,2013-07-28 02:57:00,
2013-07-27 22:02:00,63.7,57.4,29.60,SSE,158,1.4,0.0,80,0.00,OVC,,0.00,0.0,WeatherDisplay:10.37,2013-07-28 03:02:00,
2013-07-27 22:07:00,63.0,57.4,29.60,SSE,158,2.3,2.3,82,0.00,OVC,,0.00,0.0,WeatherDisplay:10.37,2013-07-28 03:07:00,
2013-07-27 22:12:00,63.0,56.7,29.63,SSE,158,2.4,2.4,80,0.00,OVC,,0.00,0.0,WeatherDisplay:10.37,2013-07-28 03:12:00,
2013-07-27 22:17:00,63.1,57.2,29.63,SSE,158,1.2,0.0,81,0.00,OVC,,0.00,0.0,WeatherDisplay:10.37,2013-07-28 03:17:00,
2013-07-27 22:22:00,63.0,56.7,29.63,SSE,158,0.0,0.0,80,0.00,OVC,,0.00,0.0,WeatherDisplay:10.37,2013-07-28 03:22:00,
2013-07-27 22:27:00,63.0,57.4,29.63,SSE,158,0.0,0.0,82,0.00,OVC,,0.00,0.0,WeatherDisplay:10.37,2013-07-28 03:27:00,
2013-07-27 22:32:00,62.6,57.0,29.63,SSE,158,0.0,0.0,82,0.00,OVC,,0.00,0.0,WeatherDisplay:10.37,2013-07-28 03:32:00,
2013-07-27 22:37:00,62.4,56.9,29.63,SSE,158,0.0,0.0,82,0.00,OVC,,0.00,0.0,WeatherDisplay:10.37,2013-07-28 03:37:00,
2013-07-27 22:42:00,62.4,56.9,29.63,SSE,158,0.0,0.0,82,0.00,OVC,,0.00,0.0,WeatherDisplay:10.37,2013-07-28 03:42:00,
2013-07-27 22:48:00,62.4,56.9,29.63,SSE,158,0.0,0.0,82,0.00,OVC,,0.00,0.0,WeatherDisplay:10.37,2013-07-28 03:48:00,
2013-07-27 22:53:00,62.2,56.7,29.63,SSE,158,0.0,0.0,82,0.00,OVC,,0.00,0.0,WeatherDisplay:10.37,2013-07-28 03:53:00,
2013-07-27 22:58:00,62.2,56.7,29.63,SSE,158,0.0,0.0,82,0.00,OVC,,0.00,0.0,WeatherDisplay:10.37,2013-07-28 03:58:00,
2013-07-27 23:01:00,62.1,56.5,29.63,SSE,158,0.0,0.0,82,0.00,OVC,,0.00,0.0,WeatherDisplay:10.37,2013-07-28 04:01:00,
2013-07-27 23:07:00,61.9,56.7,29.63,SSE,158,0.0,0.0,83,0.00,OVC,,0.00,0.0,WeatherDisplay:10.37,2013-07-28 04:07:00,
2013-07-27 23:12:00,61.9,56.7,29.63,SSE,158,0.0,0.0,83,0.00,OVC,,0.00,0.0,WeatherDisplay:10.37,2013-07-28 04:12:00,
2013-07-27 23:17:00,61.9,56.7,29.63,SSE,158,0.0,0.0,83,0.00,OVC,,0.00,0.0,WeatherDisplay:10.37,2013-07-28 04:17:00,
2013-07-27 23:22:00,61.7,56.8,29.63,SSE,158,0.0,0.0,84,0.00,OVC,,0.00,0.0,WeatherDisplay:10.37,2013-07-28 04:22:00,
2013-07-27 23:27:00,61.9,57.0,29.63,SSE,158,0.0,0.0,84,0.00,OVC,,0.00,0.0,WeatherDisplay:10.37,2013-07-28 04:27:00,
2013-07-27 23:32:00,61.7,57.1,29.63,SE,135,1.2,1.2,85,0.00,OVC,,0.00,0.0,WeatherDisplay:10.37,2013-07-28 04:32:00,
2013-07-27 23:37:00,61.3,56.8,29.63,SE,135,1.6,0.0,85,0.00,OVC,,0.00,0.0,WeatherDisplay:10.37,2013-07-28 04:37:00,
2013-07-27 23:42:00,61.2,56.6,29.63,SE,135,0.0,0.0,85,0.00,OVC,,0.00,0.0,WeatherDisplay:10.37,2013-07-28 04:42:00,
2013-07-27 23:47:00,61.5,57.0,29.63,SE,135,0.0,0.0,85,0.00,OVC,,0.00,0.0,WeatherDisplay:10.37,2013-07-28 04:47:00,
2013-07-27 23:52:00,61.5,57.0,29.63,SE,135,0.0,0.0,85,0.00,OVC,,0.00,0.0,WeatherDisplay:10.37,2013-07-28 04:52:00,
2013-07-27 23:57:00,61.2,57.3,29.63,SE,135,0.0,0.0,87,0.00,OVC,,0.00,0.0,WeatherDisplay:10.37,2013-07-28 04:57:00,